Time,TemperatureF,DewpointF,PressureIn,WindDirection,WindDirectionDegrees,WindSpeedMPH,WindSpeedGustMPH,Humidity,HourlyPrecipIn,Conditions,Clouds,dailyrainin,SoftwareType,DateUTC
2013-06-24 00:05:00,83.2,69.3,29.92,South,188,4.0,5.0,63,0.00,,,0.00,Wunderground v.1.15,2013-06-24 05:05:00,
2013-06-24 00:11:00,83.0,69.6,29.92,SE,146,4.0,4.0,64,0.00,,,0.00,Wunderground v.1.15,2013-06-24 05:11:00,
2013-06-24 00:17:00,82.8,69.0,29.93,SSE,164,3.0,11.0,64,0.00,,,0.00,weatherlink.com 1.10,2013-06-24 05:17:00,
2013-06-24 00:22:00,82.7,69.7,29.93,ESE,122,4.0,7.0,65,0.00,,,0.00,Wunderground v.1.15,2013-06-24 05:22:00,
2013-06-24 00:28:00,82.6,69.6,29.93,South,191,4.0,9.0,65,0.00,,,0.00,Wunderground v.1.15,2013-06-24 05:28:00,
2013-06-24 00:33:00,82.6,70.0,29.93,SSE,154,9.0,12.0,65,0.00,,,0.00,weatherlink.com 1.10,2013-06-24 05:33:00,
2013-06-24 00:38:00,82.5,70.0,29.93,SSW,194,4.0,10.0,66,0.00,,,0.00,Wunderground v.1.15,2013-06-24 05:38:00,
2013-06-24 00:44:00,82.5,70.0,29.93,East,98,4.0,5.0,66,0.00,,,0.00,Wunderground v.1.15,2013-06-24 05:44:00,
2013-06-24 00:50:00,82.2,69.7,29.93,SE,135,4.0,4.0,66,0.00,,,0.00,Wunderground v.1.15,2013-06-24 05:50:00,
2013-06-24 00:56:00,82.0,70.0,29.93,SSE,152,5.0,11.0,67,0.00,,,0.00,Wunderground v.1.15,2013-06-24 05:56:00,
2013-06-24 01:02:00,81.9,70.0,29.93,SSE,148,2.0,11.0,67,0.00,,,0.00,weatherlink.com 1.10,2013-06-24 06:02:00,
2013-06-24 01:07:00,81.9,69.9,29.93,SE,134,4.0,5.0,67,0.00,,,0.00,Wunderground v.1.15,2013-06-24 06:07:00,
2013-06-24 01:14:00,81.8,70.2,29.93,SSE,166,4.0,8.0,68,0.00,,,0.00,Wunderground v.1.15,2013-06-24 06:14:00,
2013-06-24 01:20:00,81.6,70.0,29.93,South,184,5.0,5.0,68,0.00,,,0.00,Wunderground v.1.15,2013-06-24 06:20:00,
2013-06-24 01:26:00,81.4,70.2,29.93,SSE,163,4.0,6.0,69,0.00,,,0.00,Wunderground v.1.15,2013-06-24 06:26:00,
2013-06-24 01:31:00,81.2,70.1,29.93,ESE,120,4.0,5.0,69,0.00,,,0.00,Wunderground v.1.15,2013-06-24 06:31:00,
2013-06-24 01:37:00,81.1,70.4,29.93,South,182,4.0,5.0,70,0.00,,,0.00,Wunderground v.1.15,2013-06-24 06:37:00,
2013-06-24 01:42:00,81.1,70.4,29.93,SSE,153,4.0,10.0,70,0.00,,,0.00,Wunderground v.1.15,2013-06-24 06:42:00,
2013-06-24 01:47:00,81.0,70.0,29.94,SE,140,5.0,13.0,70,0.00,,,0.00,weatherlink.com 1.10,2013-06-24 06:47:00,
2013-06-24 01:52:00,81.0,70.3,29.94,ESE,117,4.0,5.0,70,0.00,,,0.00,Wunderground v.1.15,2013-06-24 06:52:00,
2013-06-24 01:57:00,80.9,70.6,29.94,South,187,5.0,11.0,71,0.00,,,0.00,Wunderground v.1.15,2013-06-24 06:57:00,
2013-06-24 02:03:00,81.0,70.7,29.94,SSE,166,4.0,7.0,71,0.00,,,0.00,Wunderground v.1.15,2013-06-24 07:03:00,
2013-06-24 02:09:00,81.0,70.7,29.94,South,186,4.0,7.0,71,0.00,,,0.00,Wunderground v.1.15,2013-06-24 07:09:00,
2013-06-24 02:14:00,80.9,70.6,29.94,SE,145,4.0,7.0,71,0.00,,,0.00,Wunderground v.1.15,2013-06-24 07:14:00,
2013-06-24 02:20:00,80.7,70.4,29.94,South,177,4.0,5.0,71,0.00,,,0.00,Wunderground v.1.15,2013-06-24 07:20:00,
2013-06-24 02:26:00,80.6,70.3,29.94,South,182,4.0,5.0,71,0.00,,,0.00,Wunderground v.1.15,2013-06-24 07:26:00,
2013-06-24 02:32:00,80.6,70.7,29.94,SE,143,4.0,5.0,72,0.00,,,0.00,Wunderground v.1.15,2013-06-24 07:32:00,
2013-06-24 02:38:00,80.6,70.7,29.94,SSE,151,4.0,5.0,72,0.00,,,0.00,Wunderground v.1.15,2013-06-24 07:38:00,
2013-06-24 02:44:00,80.5,70.6,29.94,SSE,162,3.0,4.0,72,0.00,,,0.00,Wunderground v.1.15,2013-06-24 07:44:00,
2013-06-24 02:50:00,80.2,70.4,29.94,SSE,160,3.0,4.0,72,0.00,,,0.00,Wunderground v.1.15,2013-06-24 07:50:00,
2013-06-24 02:56:00,80.2,70.4,29.94,SSE,165,3.0,11.0,72,0.00,,,0.00,Wunderground v.1.15,2013-06-24 07:56:00,
2013-06-24 03:02:00,80.1,70.7,29.94,South,184,4.0,4.0,73,0.00,,,0.00,Wunderground v.1.15,2013-06-24 08:02:00,
2013-06-24 03:08:00,80.0,70.2,29.94,South,190,5.0,10.0,72,0.00,,,0.00,Wunderground v.1.15,2013-06-24 08:08:00,
2013-06-24 03:13:00,79.9,70.5,29.94,SW,224,4.0,8.0,73,0.00,,,0.00,Wunderground v.1.15,2013-06-24 08:13:00,
2013-06-24 03:19:00,79.8,70.4,29.94,South,182,4.0,8.0,73,0.00,,,0.00,Wunderground v.1.15,2013-06-24 08:19:00,
2013-06-24 03:24:00,79.8,70.4,29.94,South,175,4.0,6.0,73,0.00,,,0.00,Wunderground v.1.15,2013-06-24 08:24:00,
2013-06-24 03:30:00,79.8,70.4,29.94,SSE,165,3.0,3.0,73,0.00,,,0.00,Wunderground v.1.15,2013-06-24 08:30:00,
2013-06-24 03:36:00,79.6,70.2,29.94,SSE,167,2.0,5.0,73,0.00,,,0.00,Wunderground v.1.15,2013-06-24 08:36:00,
2013-06-24 03:42:00,79.4,70.4,29.95,South,174,3.0,3.0,74,0.00,,,0.00,Wunderground v.1.15,2013-06-24 08:42:00,
2013-06-24 03:48:00,79.3,70.0,29.95,SSE,168,5.0,8.0,74,0.00,,,0.00,weatherlink.com 1.10,2013-06-24 08:48:00,
2013-06-24 03:53:00,79.3,70.3,29.95,SSE,163,3.0,3.0,74,0.00,,,0.00,Wunderground v.1.15,2013-06-24 08:53:00,
2013-06-24 03:59:00,79.1,70.1,29.95,South,185,3.0,7.0,74,0.00,,,0.00,Wunderground v.1.15,2013-06-24 08:59:00,
2013-06-24 04:04:00,79.0,70.0,29.95,SSE,166,3.0,6.0,74,0.00,,,0.00,Wunderground v.1.15,2013-06-24 09:04:00,
2013-06-24 04:10:00,78.9,70.3,29.95,South,180,4.0,4.0,75,0.00,,,0.00,Wunderground v.1.15,2013-06-24 09:10:00,
2013-06-24 04:15:00,78.8,70.2,29.95,SSE,163,3.0,5.0,75,0.00,,,0.00,Wunderground v.1.15,2013-06-24 09:15:00,
2013-06-24 04:20:00,78.7,70.1,29.95,SSW,207,3.0,4.0,75,0.00,,,0.00,Wunderground v.1.15,2013-06-24 09:20:00,
2013-06-24 04:26:00,78.7,69.7,29.95,SSW,198,3.0,6.0,74,0.00,,,0.00,Wunderground v.1.15,2013-06-24 09:26:00,
2013-06-24 04:31:00,78.6,69.6,29.95,SSE,155,3.0,4.0,74,0.00,,,0.00,Wunderground v.1.15,2013-06-24 09:31:00,
2013-06-24 04:37:00,78.4,69.8,29.95,South,190,4.0,7.0,75,0.00,,,0.00,Wunderground v.1.15,2013-06-24 09:37:00,
2013-06-24 04:43:00,78.3,69.7,29.95,SSE,149,4.0,4.0,75,0.00,,,0.00,Wunderground v.1.15,2013-06-24 09:43:00,
2013-06-24 04:49:00,78.3,69.7,29.95,South,172,4.0,9.0,75,0.00,,,0.00,Wunderground v.1.15,2013-06-24 09:49:00,
2013-06-24 04:54:00,78.3,69.7,29.96,South,178,3.0,4.0,75,0.00,,,0.00,Wunderground v.1.15,2013-06-24 09:54:00,
2013-06-24 05:00:00,78.1,69.5,29.96,South,191,3.0,3.0,75,0.00,,,0.00,Wunderground v.1.15,2013-06-24 10:00:00,
2013-06-24 05:06:00,77.9,69.7,29.95,South,169,4.0,6.0,76,0.00,,,0.00,Wunderground v.1.15,2013-06-24 10:06:00,
2013-06-24 05:11:00,77.8,69.6,29.96,South,183,4.0,4.0,76,0.00,,,0.00,Wunderground v.1.15,2013-06-24 10:11:00,
2013-06-24 05:17:00,77.8,69.6,29.96,SSE,166,3.0,8.0,76,0.00,,,0.00,Wunderground v.1.15,2013-06-24 10:17:00,
2013-06-24 05:23:00,77.6,69.8,29.96,SSE,161,3.0,4.0,77,0.00,,,0.00,Wunderground v.1.15,2013-06-24 10:23:00,
2013-06-24 05:29:00,77.5,69.7,29.96,South,190,4.0,4.0,77,0.00,,,0.00,Wunderground v.1.15,2013-06-24 10:29:00,
2013-06-24 05:35:00,77.4,69.6,29.96,SSE,157,4.0,6.0,77,0.00,,,0.00,Wunderground v.1.15,2013-06-24 10:35:00,
2013-06-24 05:41:00,77.4,69.6,29.96,SSE,167,4.0,4.0,77,0.00,,,0.00,Wunderground v.1.15,2013-06-24 10:41:00,
2013-06-24 05:46:00,77.4,69.6,29.97,SSE,150,4.0,6.0,77,0.00,,,0.00,Wunderground v.1.15,2013-06-24 10:46:00,
2013-06-24 05:51:00,77.3,69.5,29.97,SSE,167,3.0,5.0,77,0.00,,,0.00,Wunderground v.1.15,2013-06-24 10:51:00,
2013-06-24 05:56:00,77.1,69.3,29.97,South,171,3.0,6.0,77,0.00,,,0.00,Wunderground v.1.15,2013-06-24 10:56:00,
2013-06-24 06:02:00,77.0,69.2,29.97,South,179,3.0,6.0,77,0.00,,,0.00,Wunderground v.1.15,2013-06-24 11:02:00,
2013-06-24 06:07:00,76.9,69.5,29.97,South,182,3.0,6.0,78,0.00,,,0.00,Wunderground v.1.15,2013-06-24 11:07:00,
2013-06-24 06:12:00,76.8,69.4,29.97,South,171,2.0,5.0,78,0.00,,,0.00,Wunderground v.1.15,2013-06-24 11:12:00,
2013-06-24 06:18:00,76.6,69.6,29.97,South,178,2.0,5.0,79,0.00,,,0.00,Wunderground v.1.15,2013-06-24 11:18:00,
2013-06-24 06:24:00,76.5,69.9,29.98,South,175,3.0,5.0,80,0.00,,,0.00,Wunderground v.1.15,2013-06-24 11:24:00,
2013-06-24 06:33:00,76.5,69.9,29.98,South,185,3.0,5.0,80,0.00,,,0.00,Wunderground v.1.15,2013-06-24 11:33:00,
2013-06-24 06:39:00,76.6,70.0,29.98,SSE,165,3.0,5.0,80,0.00,,,0.00,Wunderground v.1.15,2013-06-24 11:39:00,
2013-06-24 06:45:00,76.6,70.0,29.98,SSE,167,3.0,7.0,80,0.00,,,0.00,Wunderground v.1.15,2013-06-24 11:45:00,
2013-06-24 06:51:00,76.5,69.9,29.98,SSE,163,3.0,7.0,80,0.00,,,0.00,Wunderground v.1.15,2013-06-24 11:51:00,
2013-06-24 06:57:00,76.5,70.2,29.98,South,172,3.0,8.0,81,0.00,,,0.00,Wunderground v.1.15,2013-06-24 11:57:00,
2013-06-24 07:03:00,76.6,70.3,29.98,SSE,153,3.0,8.0,81,0.00,,,0.00,Wunderground v.1.15,2013-06-24 12:03:00,
2013-06-24 07:08:00,76.6,70.3,29.99,South,186,3.0,8.0,81,0.00,,,0.00,Wunderground v.1.15,2013-06-24 12:08:00,
2013-06-24 07:14:00,76.7,70.8,29.99,SSE,165,4.0,5.0,82,0.00,,,0.00,Wunderground v.1.15,2013-06-24 12:14:00,
2013-06-24 07:20:00,76.8,71.0,29.99,SSE,157,5.0,9.0,81,0.00,,,0.00,weatherlink.com 1.10,2013-06-24 12:20:00,
2013-06-24 07:25:00,76.9,70.6,29.99,South,176,3.0,6.0,81,0.00,,,0.00,Wunderground v.1.15,2013-06-24 12:25:00,
2013-06-24 07:30:00,77.0,70.7,29.99,South,176,4.0,4.0,81,0.00,,,0.00,Wunderground v.1.15,2013-06-24 12:30:00,
2013-06-24 07:36:00,77.0,70.7,29.99,South,182,4.0,5.0,81,0.00,,,0.00,Wunderground v.1.15,2013-06-24 12:36:00,
2013-06-24 07:41:00,77.1,70.8,29.99,South,186,4.0,4.0,81,0.00,,,0.00,Wunderground v.1.15,2013-06-24 12:41:00,
2013-06-24 07:46:00,77.3,71.4,29.99,SSW,199,4.0,7.0,82,0.00,,,0.00,Wunderground v.1.15,2013-06-24 12:46:00,
2013-06-24 07:52:00,77.6,71.7,29.99,SSE,157,4.0,7.0,82,0.00,,,0.00,Wunderground v.1.15,2013-06-24 12:52:00,
2013-06-24 07:57:00,77.7,71.4,29.99,South,178,4.0,9.0,81,0.00,,,0.00,Wunderground v.1.15,2013-06-24 12:57:00,
2013-06-24 08:03:00,77.9,72.0,30.00,SSE,165,4.0,6.0,82,0.00,,,0.00,Wunderground v.1.15,2013-06-24 13:03:00,
2013-06-24 08:08:00,78.1,72.2,30.00,South,179,4.0,7.0,82,0.00,,,0.00,Wunderground v.1.15,2013-06-24 13:08:00,
2013-06-24 08:13:00,78.3,72.0,30.00,South,171,5.0,5.0,81,0.00,,,0.00,Wunderground v.1.15,2013-06-24 13:13:00,
2013-06-24 08:19:00,78.5,72.2,30.00,South,169,5.0,8.0,81,0.00,,,0.00,Wunderground v.1.15,2013-06-24 13:19:00,
2013-06-24 08:25:00,78.7,72.4,30.00,SSW,199,4.0,7.0,81,0.00,,,0.00,Wunderground v.1.15,2013-06-24 13:25:00,
2013-06-24 08:30:00,79.0,72.7,30.00,South,185,4.0,5.0,81,0.00,,,0.00,Wunderground v.1.15,2013-06-24 13:30:00,
2013-06-24 08:35:00,79.4,72.7,30.00,SSW,193,4.0,6.0,80,0.00,,,0.00,Wunderground v.1.15,2013-06-24 13:35:00,
2013-06-24 08:41:00,79.9,72.8,30.00,South,183,5.0,5.0,79,0.00,,,0.00,Wunderground v.1.15,2013-06-24 13:41:00,
2013-06-24 08:47:00,80.1,73.0,30.00,South,183,5.0,5.0,79,0.00,,,0.00,Wunderground v.1.15,2013-06-24 13:47:00,
2013-06-24 08:52:00,80.3,73.2,30.00,South,191,4.0,7.0,79,0.00,,,0.00,Wunderground v.1.15,2013-06-24 13:52:00,
2013-06-24 08:58:00,80.4,72.9,30.01,SSW,202,5.0,11.0,78,0.00,,,0.00,Wunderground v.1.15,2013-06-24 13:58:00,
2013-06-24 09:04:00,80.4,72.9,30.01,South,180,5.0,5.0,78,0.00,,,0.00,Wunderground v.1.15,2013-06-24 14:04:00,
2013-06-24 09:09:00,80.5,73.0,30.01,SSE,155,5.0,5.0,78,0.00,,,0.00,Wunderground v.1.15,2013-06-24 14:09:00,
2013-06-24 09:14:00,80.8,72.9,30.01,South,177,5.0,9.0,77,0.00,,,0.00,Wunderground v.1.15,2013-06-24 14:14:00,
2013-06-24 09:20:00,81.2,73.3,30.01,South,178,5.0,8.0,77,0.00,,,0.00,Wunderground v.1.15,2013-06-24 14:20:00,
2013-06-24 09:25:00,81.7,73.4,30.01,SE,146,4.0,8.0,76,0.00,,,0.00,Wunderground v.1.15,2013-06-24 14:25:00,
2013-06-24 09:31:00,82.3,73.6,30.01,SSW,205,4.0,4.0,75,0.00,,,0.00,Wunderground v.1.15,2013-06-24 14:31:00,
2013-06-24 09:37:00,82.3,73.6,30.01,South,184,4.0,8.0,75,0.00,,,0.00,Wunderground v.1.15,2013-06-24 14:37:00,
2013-06-24 09:42:00,81.7,73.0,30.01,South,190,4.0,9.0,75,0.00,,,0.00,Wunderground v.1.15,2013-06-24 14:42:00,
2013-06-24 09:48:00,81.4,72.7,30.00,South,177,4.0,9.0,75,0.00,,,0.00,Wunderground v.1.15,2013-06-24 14:48:00,
2013-06-24 09:53:00,81.8,72.7,30.00,South,178,5.0,7.0,74,0.00,,,0.00,Wunderground v.1.15,2013-06-24 14:53:00,
2013-06-24 09:59:00,82.6,73.1,30.01,SSW,205,5.0,10.0,73,0.00,,,0.00,Wunderground v.1.15,2013-06-24 14:59:00,
2013-06-24 10:05:00,83.2,72.8,30.01,SSE,150,5.0,7.0,71,0.00,,,0.00,Wunderground v.1.15,2013-06-24 15:05:00,
2013-06-24 10:11:00,84.0,73.6,30.01,South,171,5.0,5.0,71,0.00,,,0.00,Wunderground v.1.15,2013-06-24 15:11:00,
2013-06-24 10:17:00,84.6,72.9,30.01,SSE,159,4.0,6.0,68,0.00,,,0.00,Wunderground v.1.15,2013-06-24 15:17:00,
2013-06-24 10:23:00,84.9,73.2,30.00,SW,223,5.0,7.0,68,0.00,,,0.00,Wunderground v.1.15,2013-06-24 15:23:00,
2013-06-24 10:28:00,84.9,73.2,30.00,South,180,5.0,8.0,68,0.00,,,0.00,Wunderground v.1.15,2013-06-24 15:28:00,
2013-06-24 10:34:00,84.9,73.2,30.00,SSE,166,4.0,7.0,68,0.00,,,0.00,Wunderground v.1.15,2013-06-24 15:34:00,
2013-06-24 10:39:00,84.9,73.2,30.00,SSW,192,4.0,7.0,68,0.00,,,0.00,Wunderground v.1.15,2013-06-24 15:39:00,
2013-06-24 10:45:00,84.7,72.1,30.00,South,188,4.0,9.0,66,0.00,,,0.00,Wunderground v.1.15,2013-06-24 15:45:00,
2013-06-24 10:50:00,84.8,71.7,30.00,South,170,5.0,9.0,65,0.00,,,0.00,Wunderground v.1.15,2013-06-24 15:50:00,
2013-06-24 10:55:00,84.9,71.8,30.00,South,188,5.0,9.0,65,0.00,,,0.00,Wunderground v.1.15,2013-06-24 15:55:00,
2013-06-24 11:00:00,85.4,72.3,30.00,SSE,165,5.0,7.0,65,0.00,,,0.00,Wunderground v.1.15,2013-06-24 16:00:00,
2013-06-24 11:06:00,85.7,72.1,30.00,SSW,203,5.0,7.0,64,0.00,,,0.00,Wunderground v.1.15,2013-06-24 16:06:00,
2013-06-24 11:11:00,85.7,72.6,30.00,South,191,4.0,5.0,65,0.00,,,0.00,Wunderground v.1.15,2013-06-24 16:11:00,
2013-06-24 11:17:00,86.8,72.7,30.00,SSW,193,4.0,7.0,63,0.00,,,0.00,Wunderground v.1.15,2013-06-24 16:17:00,
2013-06-24 11:22:00,86.9,72.3,30.00,SSW,198,4.0,5.0,62,0.00,,,0.00,Wunderground v.1.15,2013-06-24 16:22:00,
2013-06-24 11:28:00,86.6,72.0,30.00,SSE,157,4.0,5.0,62,0.00,,,0.00,Wunderground v.1.15,2013-06-24 16:28:00,
2013-06-24 11:34:00,86.8,72.7,30.00,South,184,4.0,7.0,63,0.00,,,0.00,Wunderground v.1.15,2013-06-24 16:34:00,
2013-06-24 11:39:00,87.2,73.1,30.00,SSE,161,4.0,7.0,63,0.00,,,0.00,Wunderground v.1.15,2013-06-24 16:39:00,
2013-06-24 11:45:00,87.5,71.9,30.00,South,169,4.0,7.0,60,0.00,,,0.00,Wunderground v.1.15,2013-06-24 16:45:00,
2013-06-24 11:51:00,87.6,72.0,30.00,South,178,4.0,5.0,60,0.00,,,0.00,Wunderground v.1.15,2013-06-24 16:51:00,
2013-06-24 11:56:00,88.2,72.6,30.00,South,178,3.0,13.0,60,0.00,,,0.00,Wunderground v.1.15,2013-06-24 16:56:00,
2013-06-24 12:02:00,88.4,72.2,30.00,SSW,194,3.0,5.0,59,0.00,,,0.00,Wunderground v.1.15,2013-06-24 17:02:00,
2013-06-24 12:07:00,88.4,72.2,30.00,South,171,4.0,5.0,59,0.00,,,0.00,Wunderground v.1.15,2013-06-24 17:07:00,
2013-06-24 12:13:00,88.7,73.0,30.00,SSW,206,3.0,4.0,60,0.00,,,0.00,Wunderground v.1.15,2013-06-24 17:13:00,
2013-06-24 12:19:00,89.0,72.8,30.00,South,176,3.0,5.0,59,0.00,,,0.00,Wunderground v.1.15,2013-06-24 17:19:00,
2013-06-24 12:24:00,89.0,71.8,30.00,SSW,200,4.0,6.0,57,0.00,,,0.00,Wunderground v.1.15,2013-06-24 17:24:00,
2013-06-24 12:30:00,88.9,71.7,29.99,ESE,121,5.0,5.0,57,0.00,,,0.00,Wunderground v.1.15,2013-06-24 17:30:00,
2013-06-24 12:35:00,89.1,72.0,29.99,South,186,1.0,11.0,58,0.00,,,0.00,weatherlink.com 1.10,2013-06-24 17:35:00,
2013-06-24 12:41:00,89.9,72.6,29.99,South,181,3.0,3.0,57,0.00,,,0.00,Wunderground v.1.15,2013-06-24 17:41:00,
2013-06-24 12:46:00,89.9,72.1,29.99,SSW,196,3.0,4.0,56,0.00,,,0.00,Wunderground v.1.15,2013-06-24 17:46:00,
2013-06-24 12:52:00,89.9,72.0,29.99,SSE,166,2.0,11.0,55,0.00,,,0.00,weatherlink.com 1.10,2013-06-24 17:52:00,
2013-06-24 12:57:00,90.2,72.4,29.99,South,173,3.0,8.0,56,0.00,,,0.00,Wunderground v.1.15,2013-06-24 17:57:00,
2013-06-24 13:03:00,90.4,73.1,29.98,SE,132,2.0,3.0,57,0.00,,,0.00,Wunderground v.1.15,2013-06-24 18:03:00,
2013-06-24 13:08:00,90.4,72.6,29.98,South,182,2.0,3.0,56,0.00,,,0.00,Wunderground v.1.15,2013-06-24 18:08:00,
2013-06-24 13:13:00,90.1,71.8,29.98,WNW,303,3.0,3.0,55,0.00,,,0.00,Wunderground v.1.15,2013-06-24 18:13:00,
2013-06-24 13:19:00,90.1,72.3,29.98,SSW,195,3.0,5.0,56,0.00,,,0.00,Wunderground v.1.15,2013-06-24 18:19:00,
2013-06-24 13:25:00,89.7,72.4,29.97,SSE,167,3.0,6.0,57,0.00,,,0.00,Wunderground v.1.15,2013-06-24 18:25:00,
2013-06-24 13:30:00,90.2,72.9,29.97,North,11,3.0,3.0,57,0.00,,,0.00,Wunderground v.1.15,2013-06-24 18:30:00,
2013-06-24 13:35:00,91.0,71.5,29.97,SSE,150,3.0,6.0,53,0.00,,,0.00,Wunderground v.1.15,2013-06-24 18:35:00,
2013-06-24 13:41:00,91.5,75.1,29.97,South,172,3.0,3.0,59,0.00,,,0.00,Wunderground v.1.15,2013-06-24 18:41:00,
2013-06-24 13:46:00,91.8,72.8,29.97,South,186,2.0,3.0,54,0.00,,,0.00,Wunderground v.1.15,2013-06-24 18:46:00,
2013-06-24 13:51:00,91.8,72.8,29.96,SSE,163,3.0,3.0,54,0.00,,,0.00,Wunderground v.1.15,2013-06-24 18:51:00,
2013-06-24 13:56:00,91.7,72.1,29.96,South,188,3.0,7.0,53,0.00,,,0.00,Wunderground v.1.15,2013-06-24 18:56:00,
2013-06-24 14:02:00,91.9,72.9,29.95,SSE,165,3.0,4.0,54,0.00,,,0.00,Wunderground v.1.15,2013-06-24 19:02:00,
2013-06-24 14:08:00,92.3,72.0,29.95,South,190,1.0,13.0,52,0.00,,,0.00,weatherlink.com 1.10,2013-06-24 19:08:00,
2013-06-24 14:13:00,92.5,72.9,29.94,South,178,3.0,5.0,53,0.00,,,0.00,Wunderground v.1.15,2013-06-24 19:13:00,
2013-06-24 14:18:00,92.6,71.8,29.94,SSW,192,4.0,5.0,51,0.00,,,0.00,Wunderground v.1.15,2013-06-24 19:18:00,
2013-06-24 14:23:00,92.5,72.3,29.94,SE,140,4.0,5.0,52,0.00,,,0.00,Wunderground v.1.15,2013-06-24 19:23:00,
2013-06-24 14:28:00,92.3,72.1,29.94,SSE,162,4.0,5.0,52,0.00,,,0.00,Wunderground v.1.15,2013-06-24 19:28:00,
2013-06-24 14:33:00,92.3,73.2,29.94,SE,143,3.0,4.0,54,0.00,,,0.00,Wunderground v.1.15,2013-06-24 19:33:00,
2013-06-24 14:39:00,93.2,74.1,29.94,SSW,210,2.0,4.0,54,0.00,,,0.00,Wunderground v.1.15,2013-06-24 19:39:00,
2013-06-24 14:44:00,93.2,71.8,29.93,SSE,153,2.0,3.0,50,0.00,,,0.00,Wunderground v.1.15,2013-06-24 19:44:00,
2013-06-24 14:49:00,93.6,72.2,29.93,SSE,159,3.0,5.0,50,0.00,,,0.00,Wunderground v.1.15,2013-06-24 19:49:00,
2013-06-24 14:55:00,93.8,72.9,29.93,SSE,161,3.0,5.0,51,0.00,,,0.00,Wunderground v.1.15,2013-06-24 19:55:00,
2013-06-24 15:00:00,94.1,72.6,29.93,SSW,194,3.0,7.0,50,0.00,,,0.00,Wunderground v.1.15,2013-06-24 20:00:00,
2013-06-24 15:06:00,93.9,73.0,29.92,SW,227,3.0,7.0,51,0.00,,,0.00,Wunderground v.1.15,2013-06-24 20:06:00,
2013-06-24 15:11:00,93.9,71.2,29.92,South,171,4.0,5.0,48,0.00,,,0.00,Wunderground v.1.15,2013-06-24 20:11:00,
2013-06-24 15:17:00,94.0,73.1,29.92,South,169,4.0,6.0,51,0.00,,,0.00,Wunderground v.1.15,2013-06-24 20:17:00,
2013-06-24 15:24:00,94.4,72.3,29.92,SSE,159,3.0,4.0,49,0.00,,,0.00,Wunderground v.1.15,2013-06-24 20:24:00,
2013-06-24 15:30:00,94.5,72.4,29.92,South,174,3.0,5.0,49,0.00,,,0.00,Wunderground v.1.15,2013-06-24 20:30:00,
2013-06-24 15:36:00,94.2,72.0,29.91,SSE,159,3.0,10.0,49,0.00,,,0.00,weatherlink.com 1.10,2013-06-24 20:36:00,
2013-06-24 15:41:00,94.4,71.7,29.91,SSE,166,4.0,6.0,48,0.00,,,0.00,Wunderground v.1.15,2013-06-24 20:41:00,
2013-06-24 15:47:00,94.3,72.8,29.91,South,182,3.0,6.0,50,0.00,,,0.00,Wunderground v.1.15,2013-06-24 20:47:00,
2013-06-24 15:53:00,95.0,72.0,29.91,South,175,1.0,7.0,47,0.00,,,0.00,weatherlink.com 1.10,2013-06-24 20:53:00,
2013-06-24 15:58:00,94.7,72.0,29.91,South,188,3.0,8.0,48,0.00,,,0.00,Wunderground v.1.15,2013-06-24 20:58:00,
2013-06-24 16:03:00,95.0,72.2,29.91,South,172,3.0,8.0,48,0.00,,,0.00,Wunderground v.1.15,2013-06-24 21:03:00,
2013-06-24 16:09:00,94.9,72.8,29.91,SSW,193,4.0,8.0,49,0.00,,,0.00,Wunderground v.1.15,2013-06-24 21:09:00,
2013-06-24 16:14:00,95.2,71.2,29.91,SSW,199,3.0,5.0,46,0.00,,,0.00,Wunderground v.1.15,2013-06-24 21:14:00,
2013-06-24 16:19:00,95.1,71.7,29.90,SSE,160,3.0,5.0,47,0.00,,,0.00,Wunderground v.1.15,2013-06-24 21:19:00,
2013-06-24 16:24:00,95.5,70.8,29.90,South,181,3.0,10.0,45,0.00,,,0.00,Wunderground v.1.15,2013-06-24 21:24:00,
2013-06-24 16:29:00,95.8,71.1,29.90,South,177,3.0,10.0,45,0.00,,,0.00,Wunderground v.1.15,2013-06-24 21:29:00,
2013-06-24 16:34:00,95.6,71.5,29.90,SSE,167,3.0,3.0,46,0.00,,,0.00,Wunderground v.1.15,2013-06-24 21:34:00,
2013-06-24 16:40:00,95.6,71.5,29.90,South,188,3.0,3.0,46,0.00,,,0.00,Wunderground v.1.15,2013-06-24 21:40:00,
2013-06-24 16:45:00,95.5,70.8,29.89,SSE,161,3.0,6.0,45,0.00,,,0.00,Wunderground v.1.15,2013-06-24 21:45:00,
2013-06-24 16:51:00,95.4,72.0,29.89,South,173,4.0,4.0,47,0.00,,,0.00,Wunderground v.1.15,2013-06-24 21:51:00,
2013-06-24 16:56:00,95.5,70.8,29.89,SSW,202,3.0,8.0,45,0.00,,,0.00,Wunderground v.1.15,2013-06-24 21:56:00,
2013-06-24 17:02:00,95.3,71.2,29.89,SW,217,3.0,4.0,46,0.00,,,0.00,Wunderground v.1.15,2013-06-24 22:02:00,
2013-06-24 17:08:00,95.1,71.1,29.89,SSE,160,3.0,5.0,46,0.00,,,0.00,Wunderground v.1.15,2013-06-24 22:08:00,
2013-06-24 17:13:00,95.0,70.3,29.89,South,170,3.0,5.0,45,0.00,,,0.00,Wunderground v.1.15,2013-06-24 22:13:00,
2013-06-24 17:19:00,95.7,71.6,29.89,SSE,163,2.0,5.0,46,0.00,,,0.00,Wunderground v.1.15,2013-06-24 22:19:00,
2013-06-24 17:24:00,95.8,69.7,29.89,South,175,2.0,8.0,43,0.00,,,0.00,Wunderground v.1.15,2013-06-24 22:24:00,
2013-06-24 17:30:00,95.4,70.0,29.88,South,174,3.0,3.0,44,0.00,,,0.00,Wunderground v.1.15,2013-06-24 22:30:00,
2013-06-24 17:35:00,95.1,69.1,29.88,South,180,3.0,4.0,43,0.00,,,0.00,Wunderground v.1.15,2013-06-24 22:35:00,
2013-06-24 17:41:00,94.0,69.4,29.88,South,186,3.0,4.0,45,0.00,,,0.00,Wunderground v.1.15,2013-06-24 22:41:00,
2013-06-24 17:47:00,93.2,69.3,29.88,South,172,3.0,6.0,46,0.00,,,0.00,Wunderground v.1.15,2013-06-24 22:47:00,
2013-06-24 17:52:00,93.3,70.1,29.88,South,171,3.0,5.0,47,0.00,,,0.00,Wunderground v.1.15,2013-06-24 22:52:00,
2013-06-24 17:57:00,94.0,71.3,29.88,SSW,196,3.0,8.0,48,0.00,,,0.00,Wunderground v.1.15,2013-06-24 22:57:00,
2013-06-24 18:03:00,94.5,72.4,29.88,SSE,161,3.0,4.0,49,0.00,,,0.00,Wunderground v.1.15,2013-06-24 23:03:00,
2013-06-24 18:09:00,94.4,71.7,29.88,SSE,153,2.0,4.0,48,0.00,,,0.00,Wunderground v.1.15,2013-06-24 23:09:00,
2013-06-24 18:14:00,93.9,70.6,29.87,SSE,159,2.0,2.0,47,0.00,,,0.00,Wunderground v.1.15,2013-06-24 23:14:00,
2013-06-24 18:19:00,93.4,71.4,29.87,SSE,165,2.0,3.0,49,0.00,,,0.00,Wunderground v.1.15,2013-06-24 23:19:00,
2013-06-24 18:24:00,93.8,71.1,29.87,SE,144,2.0,3.0,48,0.00,,,0.00,Wunderground v.1.15,2013-06-24 23:24:00,
2013-06-24 18:30:00,94.5,71.2,29.87,South,182,2.0,2.0,47,0.00,,,0.00,Wunderground v.1.15,2013-06-24 23:30:00,
2013-06-24 18:37:00,94.9,71.5,29.87,WSW,250,2.0,7.0,47,0.00,,,0.00,Wunderground v.1.15,2013-06-24 23:37:00,
2013-06-24 18:42:00,95.0,70.3,29.87,South,181,2.0,2.0,45,0.00,,,0.00,Wunderground v.1.15,2013-06-24 23:42:00,
2013-06-24 18:48:00,94.9,70.9,29.87,SSE,151,2.0,6.0,46,0.00,,,0.00,Wunderground v.1.15,2013-06-24 23:48:00,
2013-06-24 18:54:00,94.8,68.8,29.87,SE,135,3.0,3.0,43,0.00,,,0.00,Wunderground v.1.15,2013-06-24 23:54:00,
2013-06-24 19:00:00,95.4,68.7,29.87,SSE,159,4.0,4.0,42,0.00,,,0.00,Wunderground v.1.15,2013-06-25 00:00:00,
2013-06-24 19:06:00,95.0,68.3,29.87,SE,137,4.0,7.0,42,0.00,,,0.00,Wunderground v.1.15,2013-06-25 00:06:00,
2013-06-24 19:11:00,94.8,68.1,29.87,SE,129,4.0,5.0,42,0.00,,,0.00,Wunderground v.1.15,2013-06-25 00:11:00,
2013-06-24 19:17:00,94.6,68.0,29.87,South,177,3.0,5.0,42,0.00,,,0.00,Wunderground v.1.15,2013-06-25 00:17:00,
2013-06-24 19:22:00,94.2,68.3,29.87,South,180,3.0,3.0,43,0.00,,,0.00,Wunderground v.1.15,2013-06-25 00:22:00,
2013-06-24 19:28:00,93.6,68.4,29.87,SSE,161,3.0,5.0,44,0.00,,,0.00,Wunderground v.1.15,2013-06-25 00:28:00,
2013-06-24 19:33:00,93.0,67.9,29.87,SSE,168,4.0,7.0,44,0.00,,,0.00,Wunderground v.1.15,2013-06-25 00:33:00,
2013-06-24 19:40:00,92.5,68.1,29.87,SSE,168,4.0,4.0,45,0.00,,,0.00,Wunderground v.1.15,2013-06-25 00:40:00,
2013-06-24 19:45:00,92.3,68.5,29.87,SSE,168,3.0,7.0,46,0.00,,,0.00,Wunderground v.1.15,2013-06-25 00:45:00,
2013-06-24 19:51:00,92.0,68.3,29.87,SSE,165,3.0,4.0,46,0.00,,,0.00,Wunderground v.1.15,2013-06-25 00:51:00,
2013-06-24 19:56:00,91.8,68.7,29.87,SSE,160,3.0,10.0,47,0.00,,,0.00,Wunderground v.1.15,2013-06-25 00:56:00,
2013-06-24 20:02:00,91.4,68.3,29.87,ESE,121,3.0,8.0,47,0.00,,,0.00,Wunderground v.1.15,2013-06-25 01:02:00,
2013-06-24 20:08:00,91.0,68.0,29.87,South,180,4.0,8.0,47,0.00,,,0.00,Wunderground v.1.15,2013-06-25 01:08:00,
2013-06-24 20:14:00,90.7,67.7,29.87,SSE,165,4.0,6.0,47,0.00,,,0.00,Wunderground v.1.15,2013-06-25 01:14:00,
2013-06-24 20:20:00,90.4,67.4,29.87,South,175,3.0,4.0,47,0.00,,,0.00,Wunderground v.1.15,2013-06-25 01:20:00,
2013-06-24 20:26:00,90.1,67.2,29.87,SSE,163,4.0,7.0,47,0.00,,,0.00,Wunderground v.1.15,2013-06-25 01:26:00,
2013-06-24 20:32:00,89.8,67.5,29.87,SSE,159,3.0,6.0,48,0.00,,,0.00,Wunderground v.1.15,2013-06-25 01:32:00,
2013-06-24 20:37:00,89.6,67.3,29.87,SSE,162,4.0,6.0,48,0.00,,,0.00,Wunderground v.1.15,2013-06-25 01:37:00,
2013-06-24 20:42:00,89.4,67.1,29.87,South,169,4.0,11.0,48,0.00,,,0.00,Wunderground v.1.15,2013-06-25 01:42:00,
2013-06-24 20:47:00,89.3,67.0,29.87,SSW,212,4.0,11.0,48,0.00,,,0.00,Wunderground v.1.15,2013-06-25 01:47:00,
2013-06-24 20:53:00,89.1,68.0,29.87,SE,130,5.0,11.0,49,0.00,,,0.00,weatherlink.com 1.10,2013-06-25 01:53:00,
2013-06-24 20:58:00,88.9,67.3,29.87,South,182,4.0,8.0,49,0.00,,,0.00,Wunderground v.1.15,2013-06-25 01:58:00,
2013-06-24 21:03:00,88.7,67.1,29.87,SE,139,5.0,6.0,49,0.00,,,0.00,Wunderground v.1.15,2013-06-25 02:03:00,
2013-06-24 21:09:00,88.3,67.3,29.87,SE,145,4.0,6.0,50,0.00,,,0.00,Wunderground v.1.15,2013-06-25 02:09:00,
2013-06-24 21:14:00,88.1,67.1,29.87,South,180,4.0,6.0,50,0.00,,,0.00,Wunderground v.1.15,2013-06-25 02:14:00,
2013-06-24 21:20:00,87.7,67.3,29.87,SE,126,4.0,7.0,51,0.00,,,0.00,Wunderground v.1.15,2013-06-25 02:20:00,
2013-06-24 21:26:00,87.5,67.1,29.88,ESE,117,4.0,7.0,51,0.00,,,0.00,Wunderground v.1.15,2013-06-25 02:26:00,
2013-06-24 21:32:00,87.2,66.9,29.88,SSE,158,4.0,7.0,51,0.00,,,0.00,Wunderground v.1.15,2013-06-25 02:32:00,
2013-06-24 21:38:00,87.0,66.7,29.88,ESE,123,5.0,8.0,51,0.00,,,0.00,Wunderground v.1.15,2013-06-25 02:38:00,
2013-06-24 21:44:00,86.8,66.5,29.88,SSE,156,4.0,8.0,51,0.00,,,0.00,Wunderground v.1.15,2013-06-25 02:44:00,
2013-06-24 21:49:00,86.8,66.5,29.88,SSE,168,4.0,8.0,51,0.00,,,0.00,Wunderground v.1.15,2013-06-25 02:49:00,
2013-06-24 21:55:00,86.7,66.4,29.88,SE,142,4.0,4.0,51,0.00,,,0.00,Wunderground v.1.15,2013-06-25 02:55:00,
2013-06-24 22:02:00,86.5,66.2,29.88,SSW,201,4.0,4.0,51,0.00,,,0.00,Wunderground v.1.15,2013-06-25 03:02:00,
2013-06-24 22:08:00,86.4,66.1,29.89,ESE,119,4.0,4.0,51,0.00,,,0.00,Wunderground v.1.15,2013-06-25 03:08:00,
2013-06-24 22:13:00,86.3,66.6,29.89,South,181,4.0,6.0,52,0.00,,,0.00,Wunderground v.1.15,2013-06-25 03:13:00,
2013-06-24 22:19:00,86.3,66.6,29.89,ESE,122,4.0,6.0,52,0.00,,,0.00,Wunderground v.1.15,2013-06-25 03:19:00,
2013-06-24 22:25:00,86.1,66.4,29.89,SE,146,4.0,4.0,52,0.00,,,0.00,Wunderground v.1.15,2013-06-25 03:25:00,
2013-06-24 22:34:00,85.9,66.8,29.90,South,186,5.0,7.0,53,0.00,,,0.00,Wunderground v.1.15,2013-06-25 03:34:00,
2013-06-24 22:40:00,85.8,66.1,29.90,East,97,5.0,5.0,52,0.00,,,0.00,Wunderground v.1.15,2013-06-25 03:40:00,
2013-06-24 22:45:00,85.8,66.1,29.90,South,178,5.0,8.0,52,0.00,,,0.00,Wunderground v.1.15,2013-06-25 03:45:00,
2013-06-24 22:50:00,85.8,66.7,29.90,South,190,5.0,5.0,53,0.00,,,0.00,Wunderground v.1.15,2013-06-25 03:50:00,
2013-06-24 22:58:00,85.8,66.7,29.91,South,169,5.0,10.0,53,0.00,,,0.00,Wunderground v.1.15,2013-06-25 03:58:00,
2013-06-24 23:01:00,85.7,67.1,29.91,SE,128,5.0,5.0,54,0.00,,,0.00,Wunderground v.1.15,2013-06-25 04:01:00,
2013-06-24 23:02:00,85.7,67.1,29.91,ESE,117,5.0,5.0,54,0.00,,,0.00,Wunderground v.1.15,2013-06-25 04:02:00,
2013-06-24 23:03:00,85.7,67.1,29.91,SE,140,5.0,5.0,54,0.00,,,0.00,Wunderground v.1.15,2013-06-25 04:03:00,
2013-06-24 23:05:00,85.7,67.1,29.91,ESE,109,4.0,9.0,54,0.00,,,0.00,Wunderground v.1.15,2013-06-25 04:05:00,
2013-06-24 23:08:00,85.6,68.0,29.91,ESE,119,3.0,11.0,55,0.00,,,0.00,weatherlink.com 1.10,2013-06-25 04:08:00,
2013-06-24 23:13:00,85.4,67.4,29.91,SE,136,5.0,9.0,55,0.00,,,0.00,Wunderground v.1.15,2013-06-25 04:13:00,
2013-06-24 23:18:00,85.3,67.8,29.91,SSE,161,5.0,9.0,56,0.00,,,0.00,Wunderground v.1.15,2013-06-25 04:18:00,
2013-06-24 23:23:00,85.2,67.7,29.91,SE,131,5.0,12.0,56,0.00,,,0.00,Wunderground v.1.15,2013-06-25 04:23:00,
2013-06-24 23:29:00,85.1,68.2,29.91,SSE,150,5.0,12.0,57,0.00,,,0.00,Wunderground v.1.15,2013-06-25 04:29:00,
2013-06-24 23:35:00,85.0,68.6,29.91,SE,124,6.0,11.0,58,0.00,,,0.00,Wunderground v.1.15,2013-06-25 04:35:00,
2013-06-24 23:40:00,84.9,69.0,29.91,SE,137,6.0,7.0,59,0.00,,,0.00,Wunderground v.1.15,2013-06-25 04:40:00,
2013-06-24 23:46:00,84.8,69.4,29.92,SSE,165,5.0,7.0,60,0.00,,,0.00,Wunderground v.1.15,2013-06-25 04:46:00,
2013-06-24 23:52:00,84.5,69.1,29.92,ESE,123,5.0,8.0,60,0.00,,,0.00,Wunderground v.1.15,2013-06-25 04:52:00,
2013-06-24 23:57:00,84.5,69.6,29.92,SSE,161,4.0,10.0,61,0.00,,,0.00,Wunderground v.1.15,2013-06-25 04:57:00,